Find Starlink 37058

NORAD ID: 68195 Int'l Des: 2026-050 Owner: SPXS Country: US Constellation: starlink operational
LEOCIRCULAR

現在のビュー

3D地球を読み込み中...

About Starlink 37058

Starlink 37058 (NORAD 68195) is a starlink constellation satellite (v2 mini) launched Mar 14, 2026 by SPXS of US. It operates in LEO, CIRCULAR orbit with a mass of 575.00 kg.

Starlink 37058について

説明を読み込み中...

次回通過

Passes for default location (London). Set your location on the main map for personalized predictions.

高度履歴

Loading altitude history...

軌道要素

1 68195U 26050AE 26165.74645748 .00020569 00000-0 61834-3 0 9994
2 68195 53.1584 174.4584 0001295 81.3403 278.7746 15.34394385 14007
Epoch: Jun 14, 2026 • Age: 19 hours

現在のステータス

高度 466.2 km
速度 7.64 km/s
衛星直下点 43.65°N, 118.25°E
打ち上げ日 Mar 14, 2026
運用期間 0.2 years
タイプ internet

技術仕様

分類 Payload
質量 575.00 kg
乾燥質量 530.00 kg
総質量 575.00 kg
長さ 0.30 m
直径 4.10 m
スパン 29.00 m
形状 Box + pan
製造者 SPXS
バスタイプ Starlink V2MO
フェーズステータス In Orbit
所有者/国 SPXS/US

Most Searched